Regional Weather Roundup
Issued by NWS Newport/Morehead, NC

Current Version | Previous Version | Graphics & Text | Print | Product List | Glossary Off
Versions: 1 2 3 4 5 6 7 8 9 10 11 12 13 14 15 16 17 18 19 20 21 22 23 24 25 26 27 28 29 30 31 32 33 34 35 36 37 38 39 40 41 42 43 44 45 46 47 48 49 50

000
ASUS42 KMHX 241913
RWRMHX
WEATHER ROUNDUP FOR EASTERN NORTH CAROLINA
NATIONAL WEATHER SERVICE NEWPORT/MOREHEAD CITY NC
300 PM EDT WED AUG 24 2016

NOTE: "FAIR" INDICATES FEW OR NO CLOUDS BELOW 12,000 FEET
WITH NO SIGNIFICANT WEATHER AND/OR OBSTRUCTIONS TO VISIBILITY

NCZ015>017-031-032-045>047-102-103-242000-
NORTH COAST

CITY           SKY/WX    TMP DP  RH WIND       PRES   REMARKS
EDENTON        PTSUNNY   86  61  43 W3        30.25F
ELIZABETH CITY MOSUNNY   82  64  54 NE7       30.25F
KITTY HAWK     CLEAR     86  73  64 NE6       30.24S
MANTEO         MOSUNNY   82  71  68 NE10      30.24F

$$

NCZ045>047-081-094-103-104-242000-
CENTRAL COAST

CITY           SKY/WX    TMP DP  RH WIND       PRES   REMARKS
FRISCO         CLOUDY    81  72  74 NE7       30.22F

$$

NCZ095-097-098-100-101-242000-
SOUTHERN COAST

CITY           SKY/WX    TMP DP  RH WIND       PRES   REMARKS
BEAUFORT       CLOUDY    80  69  69 NE12      30.22F
CEDAR ISLAND   NOT AVBL
JACKSONVILLE   MOSUNNY   85  58  39 NE6       30.22F
PINEY ISLAND   NOT AVBL
WILMINGTON     MOSUNNY   86  61  42 NE12      30.22F


$$

NCZ011>013-027>030-043-044-078>080-089-090>093-098-242000-
COASTAL PLAIN

CITY           SKY/WX    TMP DP  RH WIND       PRES   REMARKS
AHOSKIE        CLOUDY    82  61  48 NE7       30.24F
CLINTON        MOSUNNY   84  65  51 N7        30.25F
ELIZABETHTOWN  MOSUNNY   86  62  44 N5        30.23F
GOLDSBORO      MOSUNNY   86  61  42 N10       30.23F
GREENVILLE     MOSUNNY   86  61  42 N10       30.25F
HAVELOCK       PTSUNNY   85  66  53 NE10      30.23F
KENANSVILLE    NOT AVBL
KINSTON        MOSUNNY   84  61  45 N6G12     30.25F
NEW BERN       MOSUNNY   83  63  50 VRB5      30.24F
RICHLANDS      MOSUNNY   85  63  47 N8        30.24F
ROCKY MOUNT    MOSUNNY   86  62  44 NE9G17    30.25F
WASHINGTON     CLOUDY    83  60  45 N9        30.24F
WHITEVILLE     MOSUNNY   85  62  46 N6        30.22F

$$

AMZ130-135-150-152-154-156-158-170-250-252-270-ANZ085-086-088-633-658-670-242000-
MARINE OBSERVATIONS

STATION/POSITION TIME  TEMP    WIND        PRES    WAVE   SWELL
                       AIR SEA DIR/SP/G            HT/PER HT/PER
                 (UTC) (F)     (DEG/KT/KT) (MB)    (FT/S) (FT/S)
CHESAPEAKE LIGHT NOT AVBL
64 E VA BEACH    1850   79 82   70/  8/ 12 1024.0    3/11   2/11
DUCK             1800   78 79   20/  8/ 10 1024.1
2 E DUCK         1811      76                N/A     2/13
OREGON INLET     1800   80 78   20/  9/ 12 1024.1
13E OREGON INLT  1900      80                N/A     3/ 5   2/11
HATTERAS CG      1800   79 79   20/ 11/ 14 1023.5
DIAMOND BUOY     1750   81 85  100/ 12/ 14 1023.3    3/ 7   2/ 7
CAPE LOOKOUT     1900   79     360/ 13/ 15 1022.9
BEAUFORT LAB     1800   81 80   20/ 12/ 16 1023.2
30 SE NEW RVR IN 1808   81 84   20/ 12/ 16 1023.4
30 SE NEW RVR IN 1825      84                N/A     3/ 4
27 SE WRIGHTSVLE 1808   79 84   10/ 12/ 16 1023.8
5 SE WRIGHTSVLE  1808   80 83   60/ 12/ 16 1024.8
225 S CAPE HAT   1850   82 85   50/ 14/ 17 1020.5    5/11   2/11
41 SE CHARLESTON 1850   82 84   40/ 17/ 19 1022.2    4/ 4   2/ 8

$$




USA.gov is the U.S. government's official web portal to all federal, state and local government web resources and services.